PPNOB LPAZ-LPMA

Flight info

Callsign PPNOB
Flight time 1h 6m
Altitude 390
Route ETROX DCT IRKID
Aircraft B737/M-SDE2E3FGRY/S

Departure

Time 2026-05-07 17:15
Airport Santa Maria Airport (LPAZ)

Arrival

Time 2026-05-07 18:21
Airport Cristiano Ronaldo International Airport (LPMA)
Time Latitude Longitude Altitude Speed Heading
2026-05-07 17:15 36.86411 -24.98147 11882 ft 337 kts 120°
2026-05-07 17:15 36.85237 -24.95524 12813 ft 354 kts 120°
2026-05-07 17:15 36.83984 -24.92838 13839 ft 363 kts 122°
2026-05-07 17:15 36.82673 -24.90102 14832 ft 370 kts 123°
2026-05-07 17:16 36.81327 -24.87315 15791 ft 378 kts 123°
2026-05-07 17:16 36.79959 -24.84480 16722 ft 386 kts 123°
2026-05-07 17:16 36.78560 -24.81578 17637 ft 393 kts 123°
2026-05-07 17:16 36.77136 -24.78616 18477 ft 401 kts 124°
2026-05-07 17:17 36.75688 -24.75604 19191 ft 409 kts 124°
2026-05-07 17:17 36.74229 -24.72566 19890 ft 417 kts 124°
2026-05-07 17:17 36.72726 -24.69434 20612 ft 424 kts 124°
2026-05-07 17:17 36.71198 -24.66255 21310 ft 431 kts 124°
2026-05-07 17:18 36.69641 -24.63016 21875 ft 444 kts 124°
2026-05-07 17:18 36.68010 -24.59633 22150 ft 465 kts 124°
2026-05-07 17:18 36.66321 -24.56131 22740 ft 475 kts 124°
2026-05-07 17:18 36.64610 -24.52579 23493 ft 481 kts 124°
2026-05-07 17:19 36.62875 -24.48981 24123 ft 486 kts 123°
2026-05-07 17:19 36.61127 -24.45359 24762 ft 490 kts 123°
2026-05-07 17:19 36.59360 -24.41704 25383 ft 495 kts 124°
2026-05-07 17:19 36.57578 -24.38024 25960 ft 500 kts 124°
2026-05-07 17:20 36.55774 -24.34303 26539 ft 504 kts 123°
2026-05-07 17:20 36.53962 -24.30568 27257 ft 503 kts 123°
2026-05-07 17:20 36.52147 -24.26831 28063 ft 501 kts 123°
2026-05-07 17:20 36.50374 -24.23184 28814 ft 500 kts 123°
2026-05-07 17:21 36.48573 -24.19486 29495 ft 500 kts 123°
2026-05-07 17:21 36.46769 -24.15786 30099 ft 501 kts 123°
2026-05-07 17:21 36.44977 -24.12114 30742 ft 498 kts 123°
2026-05-07 17:21 36.43182 -24.08436 31477 ft 492 kts 123°
2026-05-07 17:22 36.41416 -24.04826 32181 ft 488 kts 123°
2026-05-07 17:22 36.39700 -24.01201 32790 ft 486 kts 118°
2026-05-07 17:22 36.38179 -23.97458 33350 ft 485 kts 116°
2026-05-07 17:22 36.36746 -23.93681 33915 ft 483 kts 115°
2026-05-07 17:23 36.35333 -23.89855 34154 ft 489 kts 115°
2026-05-07 17:23 36.33914 -23.86001 34394 ft 493 kts 115°
2026-05-07 17:23 36.32471 -23.82112 34641 ft 498 kts 115°
2026-05-07 17:23 36.31005 -23.78208 34886 ft 501 kts 115°
2026-05-07 17:24 36.29533 -23.74325 35125 ft 505 kts 116°
2026-05-07 17:24 36.28029 -23.70383 35371 ft 508 kts 116°
2026-05-07 17:24 36.26509 -23.66419 35607 ft 511 kts 116°
2026-05-07 17:24 36.24970 -23.62417 35861 ft 513 kts 116°
2026-05-07 17:25 36.23430 -23.58416 36114 ft 516 kts 116°
2026-05-07 17:25 36.21884 -23.54406 36371 ft 517 kts 116°
2026-05-07 17:25 36.20329 -23.50372 36725 ft 516 kts 116°
2026-05-07 17:25 36.18787 -23.46377 37164 ft 513 kts 116°
2026-05-07 17:26 36.17253 -23.42405 37602 ft 510 kts 116°
2026-05-07 17:26 36.15723 -23.38448 37989 ft 509 kts 117°
2026-05-07 17:26 36.14193 -23.34497 38319 ft 508 kts 117°
2026-05-07 17:26 36.12662 -23.30549 38618 ft 508 kts 117°
2026-05-07 17:27 36.11133 -23.26611 38862 ft 507 kts 117°
2026-05-07 17:27 36.09618 -23.22713 38838 ft 513 kts 117°
2026-05-07 17:27 36.06502 -23.14713 38869 ft 521 kts 117°
2026-05-07 17:28 36.03332 -23.06596 38864 ft 529 kts 117°
2026-05-07 17:28 36.00111 -22.98366 38860 ft 532 kts 117°
2026-05-07 17:29 35.96878 -22.90123 38850 ft 533 kts 117°
2026-05-07 17:29 35.93636 -22.81882 38851 ft 533 kts 117°
2026-05-07 17:30 35.90411 -22.73705 38844 ft 532 kts 117°
2026-05-07 17:30 35.87168 -22.65502 38846 ft 531 kts 117°
2026-05-07 17:31 35.83922 -22.57315 38845 ft 530 kts 117°
2026-05-07 17:31 35.80680 -22.49156 38846 ft 529 kts 118°
2026-05-07 17:32 35.77438 -22.41020 38842 ft 528 kts 118°
2026-05-07 17:32 35.74744 -22.34273 38842 ft 528 kts 118°
2026-05-07 17:33 35.70973 -22.24853 38845 ft 527 kts 118°
2026-05-07 17:33 35.67721 -22.16751 38840 ft 527 kts 118°
2026-05-07 17:34 35.64467 -22.08666 38840 ft 527 kts 118°
2026-05-07 17:34 35.61214 -22.00601 38839 ft 526 kts 118°
2026-05-07 17:35 35.57976 -21.92596 38842 ft 526 kts 118°
2026-05-07 17:35 35.54718 -21.84558 38840 ft 526 kts 118°
2026-05-07 17:36 35.51449 -21.76514 38841 ft 526 kts 118°
2026-05-07 17:36 35.48181 -21.68491 38841 ft 526 kts 118°
2026-05-07 17:37 35.44904 -21.60467 38838 ft 526 kts 118°
2026-05-07 17:37 35.41614 -21.52430 38836 ft 526 kts 118°
2026-05-07 17:38 35.38329 -21.44424 38842 ft 526 kts 119°
2026-05-07 17:38 35.35037 -21.36421 38842 ft 526 kts 119°
2026-05-07 17:39 35.31734 -21.28412 38838 ft 526 kts 119°
2026-05-07 17:39 35.28446 -21.20456 38841 ft 526 kts 119°
2026-05-07 17:40 35.25135 -21.12466 38846 ft 526 kts 119°
2026-05-07 17:40 35.21820 -21.04484 38844 ft 526 kts 119°
2026-05-07 17:41 35.19061 -20.97856 38848 ft 526 kts 119°
2026-05-07 17:41 35.15736 -20.89884 38843 ft 526 kts 119°
2026-05-07 17:42 35.12408 -20.81925 38846 ft 526 kts 119°
2026-05-07 17:42 35.09070 -20.73970 38850 ft 526 kts 119°
2026-05-07 17:43 35.05733 -20.66033 38854 ft 526 kts 120°
2026-05-07 17:43 35.02389 -20.58094 38857 ft 526 kts 120°
2026-05-07 17:44 34.99059 -20.50204 38854 ft 526 kts 120°
2026-05-07 17:44 34.95702 -20.42268 38864 ft 526 kts 120°
2026-05-07 17:45 34.92344 -20.34351 38859 ft 525 kts 120°
2026-05-07 17:45 34.88983 -20.26444 38866 ft 525 kts 120°
2026-05-07 17:46 34.85618 -20.18546 38866 ft 525 kts 120°
2026-05-07 17:46 34.82244 -20.10646 38865 ft 525 kts 120°
2026-05-07 17:47 34.78859 -20.02740 38877 ft 525 kts 120°
2026-05-07 17:47 34.75481 -19.94865 38875 ft 526 kts 120°
2026-05-07 17:48 34.72090 -19.86982 38876 ft 525 kts 120°
2026-05-07 17:48 34.68696 -19.79107 38878 ft 525 kts 120°
2026-05-07 17:49 34.65322 -19.71300 38885 ft 525 kts 120°
2026-05-07 17:49 34.61922 -19.63448 38886 ft 525 kts 120°
2026-05-07 17:50 34.58514 -19.55595 38890 ft 525 kts 120°
2026-05-07 17:50 34.55107 -19.47765 38892 ft 525 kts 120°
2026-05-07 17:51 34.51687 -19.39921 38896 ft 525 kts 120°
2026-05-07 17:51 34.48271 -19.32106 38901 ft 525 kts 120°
2026-05-07 17:52 34.44865 -19.24330 38905 ft 526 kts 121°
2026-05-07 17:52 34.41427 -19.16499 38901 ft 526 kts 121°
2026-05-07 17:53 34.37993 -19.08693 38896 ft 524 kts 121°
2026-05-07 17:53 34.34559 -19.00907 38907 ft 524 kts 121°
2026-05-07 17:54 34.31122 -18.93131 38909 ft 523 kts 121°
2026-05-07 17:54 34.27680 -18.85363 38917 ft 524 kts 121°
2026-05-07 17:55 34.24262 -18.77663 38916 ft 524 kts 121°
2026-05-07 17:55 34.20808 -18.69901 38920 ft 524 kts 121°
2026-05-07 17:56 34.17330 -18.62102 38923 ft 524 kts 121°
2026-05-07 17:56 34.13885 -18.54394 38928 ft 524 kts 121°
2026-05-07 17:57 34.10980 -18.47909 38928 ft 525 kts 121°
2026-05-07 17:57 34.06963 -18.38957 38132 ft 521 kts 121°
2026-05-07 17:58 34.05229 -18.35101 37358 ft 520 kts 121°
2026-05-07 17:58 34.03503 -18.31269 36581 ft 520 kts 120°
2026-05-07 17:58 34.01776 -18.27437 35848 ft 519 kts 120°
2026-05-07 17:58 34.00053 -18.23618 35130 ft 518 kts 120°
2026-05-07 17:59 33.98331 -18.19804 34426 ft 516 kts 120°
2026-05-07 17:59 33.96616 -18.16010 33708 ft 514 kts 119°
2026-05-07 17:59 33.94910 -18.12237 32796 ft 514 kts 119°
2026-05-07 17:59 33.93194 -18.08453 32027 ft 513 kts 119°
2026-05-07 18:00 33.91376 -18.04852 31265 ft 510 kts 125°
2026-05-07 18:00 33.89293 -18.01395 30474 ft 511 kts 127°
2026-05-07 18:00 33.87134 -17.97982 29556 ft 514 kts 128°
2026-05-07 18:00 33.84939 -17.94564 28588 ft 513 kts 128°
2026-05-07 18:01 33.82761 -17.91164 27650 ft 512 kts 128°
2026-05-07 18:01 33.80600 -17.87760 26753 ft 510 kts 128°
2026-05-07 18:01 33.78475 -17.84382 26035 ft 504 kts 127°
2026-05-07 18:01 33.76398 -17.81061 25569 ft 492 kts 127°
2026-05-07 18:02 33.72217 -17.74363 24733 ft 506 kts 127°
2026-05-07 18:02 33.70117 -17.71002 24012 ft 499 kts 128°
2026-05-07 18:02 33.68048 -17.67693 23281 ft 492 kts 128°
2026-05-07 18:03 33.66033 -17.64476 22481 ft 486 kts 128°
2026-05-07 18:03 33.64005 -17.61242 21688 ft 480 kts 128°
2026-05-07 18:03 33.62012 -17.58068 20918 ft 475 kts 128°
2026-05-07 18:03 33.60011 -17.54885 20176 ft 481 kts 128°
2026-05-07 18:04 33.57988 -17.51670 19445 ft 483 kts 128°
2026-05-07 18:04 33.55963 -17.48455 18728 ft 484 kts 128°
2026-05-07 18:04 33.53937 -17.45241 17989 ft 481 kts 128°
2026-05-07 18:04 33.51932 -17.42058 17196 ft 475 kts 128°
2026-05-07 18:05 33.49953 -17.38922 16425 ft 469 kts 128°
2026-05-07 18:05 33.48002 -17.35833 15666 ft 460 kts 128°
2026-05-07 18:05 33.46090 -17.32808 14940 ft 451 kts 128°
2026-05-07 18:05 33.44215 -17.29844 14235 ft 443 kts 129°
2026-05-07 18:06 33.42369 -17.26930 13502 ft 433 kts 129°
2026-05-07 18:06 33.40564 -17.24082 12732 ft 424 kts 129°
2026-05-07 18:06 33.38814 -17.21322 12433 ft 406 kts 129°
2026-05-07 18:06 33.37168 -17.18724 12184 ft 382 kts 129°
2026-05-07 18:07 33.35589 -17.16239 11949 ft 369 kts 129°
2026-05-07 18:07 33.34062 -17.13837 11710 ft 357 kts 129°
2026-05-07 18:07 33.32580 -17.11509 11475 ft 347 kts 129°
2026-05-07 18:07 33.31153 -17.09271 11251 ft 337 kts 129°
2026-05-07 18:08 33.29751 -17.07072 11025 ft 329 kts 129°
2026-05-07 18:08 33.28376 -17.04917 10742 ft 323 kts 129°
2026-05-07 18:08 33.27019 -17.02792 10447 ft 319 kts 129°
2026-05-07 18:08 33.25688 -17.00708 10235 ft 312 kts 129°
2026-05-07 18:09 33.24385 -16.98669 10023 ft 306 kts 129°
2026-05-07 18:09 33.23106 -16.96668 9784 ft 301 kts 129°
2026-05-07 18:09 33.21843 -16.94693 9532 ft 297 kts 130°
2026-05-07 18:09 33.20599 -16.92750 9262 ft 293 kts 130°
2026-05-07 18:10 33.19373 -16.90835 8998 ft 289 kts 130°
2026-05-07 18:10 33.18152 -16.88928 8734 ft 288 kts 130°
2026-05-07 18:10 33.16934 -16.87028 8476 ft 288 kts 130°
2026-05-07 18:10 33.15714 -16.85129 8228 ft 290 kts 130°
2026-05-07 18:11 33.14483 -16.83210 7977 ft 291 kts 130°
2026-05-07 18:11 33.13660 -16.81928 7813 ft 292 kts 130°
2026-05-07 18:11 33.12008 -16.79355 7476 ft 292 kts 130°
2026-05-07 18:11 33.10770 -16.77428 7230 ft 291 kts 130°
2026-05-07 18:12 33.09559 -16.75544 6982 ft 290 kts 130°
2026-05-07 18:12 33.08337 -16.73642 6759 ft 288 kts 130°
2026-05-07 18:12 33.07122 -16.71754 6534 ft 285 kts 130°
2026-05-07 18:12 33.05922 -16.69888 6303 ft 282 kts 130°
2026-05-07 18:13 33.04737 -16.68047 6089 ft 278 kts 130°
2026-05-07 18:13 33.03568 -16.66233 5879 ft 274 kts 130°
2026-05-07 18:13 33.02414 -16.64444 5681 ft 271 kts 130°
2026-05-07 18:13 33.01274 -16.62676 5469 ft 268 kts 130°
2026-05-07 18:14 33.00088 -16.60986 5253 ft 263 kts 142°
2026-05-07 18:14 32.98510 -16.60017 5093 ft 251 kts 169°
2026-05-07 18:14 32.96807 -16.59784 4948 ft 244 kts 181°
2026-05-07 18:14 32.95117 -16.59696 4800 ft 241 kts 181°
2026-05-07 18:15 32.93451 -16.59611 4644 ft 237 kts 181°
2026-05-07 18:15 32.91835 -16.59520 4511 ft 228 kts 180°
2026-05-07 18:15 32.90297 -16.59428 4351 ft 221 kts 180°
2026-05-07 18:15 32.88787 -16.59335 4233 ft 214 kts 180°
2026-05-07 18:16 32.87321 -16.59244 4091 ft 208 kts 180°
2026-05-07 18:16 32.85899 -16.59206 3948 ft 201 kts 191°
2026-05-07 18:16 32.84686 -16.59896 3829 ft 190 kts 221°
2026-05-07 18:16 32.83695 -16.60912 3698 ft 185 kts 224°
2026-05-07 18:17 32.82747 -16.61933 3564 ft 182 kts 224°
2026-05-07 18:17 32.81811 -16.62938 3403 ft 180 kts 224°
2026-05-07 18:17 32.80890 -16.63928 3197 ft 177 kts 224°
2026-05-07 18:17 32.79982 -16.64906 3010 ft 176 kts 224°
2026-05-07 18:18 32.79057 -16.65901 2660 ft 181 kts 224°
2026-05-07 18:18 32.78132 -16.66891 2445 ft 178 kts 224°
2026-05-07 18:18 32.77223 -16.67862 2232 ft 170 kts 224°
2026-05-07 18:18 32.76418 -16.68801 1996 ft 160 kts 229°
2026-05-07 18:19 32.75687 -16.69729 1807 ft 148 kts 229°
2026-05-07 18:19 32.74993 -16.70579 1645 ft 140 kts 228°
2026-05-07 18:19 32.74330 -16.71410 1547 ft 134 kts 230°
2026-05-07 18:19 32.73708 -16.72204 1358 ft 129 kts 229°
2026-05-07 18:20 32.73141 -16.73011 1159 ft 126 kts 232°
2026-05-07 18:20 32.72607 -16.73810 941 ft 120 kts 232°
2026-05-07 18:20 32.72087 -16.74570 781 ft 119 kts 231°
2026-05-07 18:20 32.71559 -16.75322 584 ft 119 kts 227°
2026-05-07 18:21 32.70981 -16.76049 375 ft 122 kts 225°
2026-05-07 18:21 32.70391 -16.76742 221 ft 116 kts 224°
2026-05-07 18:21 32.69854 -16.77372 179 ft 99 kts 224°
2026-05-07 18:21 32.69533 -16.77742 169 ft 43 kts 224°
2026-05-07 18:22 32.69337 -16.77956 161 ft 19 kts 195°
2026-05-07 18:22 32.69309 -16.77953 161 ft 4 kts 153°
2026-05-07 18:22 32.69294 -16.77880 165 ft 11 kts 78°
2026-05-07 18:22 32.69339 -16.77793 167 ft 12 kts 49°
2026-05-07 18:23 32.69398 -16.77714 167 ft 14 kts 38°
2026-05-07 18:23 32.69466 -16.77639 170 ft 11 kts 46°
2026-05-07 18:23 32.69476 -16.77627 171 ft 0 kts 45°